• In Hungary
  • List of Countries
  • For 7 days
  • Water Temperature
  • Satellite Maps
  • Weather Map
  • News
  • Weather Widgets
  • user-avatar
    Login

    Hourly Weather Novaya Danilovka

    Today, 21 September, Friday

    Time Temperature Precipitation Wind Pressure Humidity
    00:00 +15°C° 0 mm 1 mps 745 mmHg 87%
    01:00 +15°C° 0 mm 1 mps 745 mmHg 87%
    02:00 +15°C° 0 mm 1 mps 745 mmHg 88%
    03:00 +15°C° 0 mm 1 mps 745 mmHg 88%
    04:00 +15°C° 0 mm 1 mps 745 mmHg 89%
    05:00 +15°C° 0 mm 1 mps 746 mmHg 90%
    06:00 +16°C° 0 mm 1 mps 746 mmHg 86%
    07:00 +19°C° 0 mm 1 mps 746 mmHg 83%
    08:00 +20°C° 0 mm 1 mps 746 mmHg 79%
    09:00 +22°C° 0 mm 1 mps 746 mmHg 75%
    10:00 +23°C° 0 mm 2 mps 746 mmHg 70%
    11:00 +25°C° 0 mm 2 mps 746 mmHg 65%
    12:00 +26°C° 0 mm 2 mps 746 mmHg 63%
    13:00 +26°C° 0 mm 2 mps 746 mmHg 61%
    14:00 +27°C° 0 mm 2 mps 746 mmHg 59%
    15:00 +26°C° 0 mm 2 mps 745 mmHg 63%
    16:00 +25°C° 0 mm 2 mps 745 mmHg 68%
    17:00 +24°C° 0 mm 2 mps 745 mmHg 73%
    18:00 +21°C° 0 mm 2 mps 745 mmHg 77%
    19:00 +20°C° 0 mm 2 mps 745 mmHg 81%
    20:00 +18°C° 0 mm 2 mps 745 mmHg 85%
    21:00 +18°C° 0 mm 2 mps 745 mmHg 85%
    22:00 +17°C° 0 mm 2 mps 744 mmHg 86%
    23:00 +17°C° 0 mm 2 mps 744 mmHg 87%

    Tomorrow, 22 September, Saturday

    Time Temperature Precipitation Wind Pressure Humidity
    00:00 +16°C° 0 mm 3 mps 744 mmHg 87%
    01:00 +16°C° 0 mm 3 mps 744 mmHg 87%
    02:00 +16°C° 0 mm 3 mps 744 mmHg 87%
    03:00 +16°C° 0 mm 3 mps 744 mmHg 86%
    04:00 +16°C° 0 mm 3 mps 743 mmHg 85%
    05:00 +14°C° 0 mm 3 mps 743 mmHg 84%
    06:00 +17°C° 0 mm 4 mps 743 mmHg 80%
    07:00 +18°C° 0 mm 4 mps 743 mmHg 75%
    08:00 +19°C° 0 mm 5 mps 742 mmHg 71%
    09:00 +21°C° 0 mm 5 mps 742 mmHg 66%
    10:00 +22°C° 0 mm 6 mps 742 mmHg 60%
    11:00 +24°C° 0 mm 6 mps 741 mmHg 54%
    12:00 +24°C° 0 mm 6 mps 741 mmHg 52%
    13:00 +26°C° 0 mm 6 mps 740 mmHg 50%
    14:00 +26°C° 0 mm 6 mps 740 mmHg 48%
    15:00 +24°C° 0 mm 6 mps 739 mmHg 52%
    16:00 +23°C° 0 mm 5 mps 739 mmHg 56%
    17:00 +22°C° 0 mm 4 mps 739 mmHg 60%
    18:00 +20°C° 0.2 mm 4 mps 739 mmHg 66%
    19:00 +16°C° 0.2 mm 5 mps 739 mmHg 72%
    20:00 +14°C° 0.2 mm 5 mps 739 mmHg 78%
    21:00 +13°C° 0.2 mm 5 mps 739 mmHg 81%
    22:00 +10°C° 0.2 mm 5 mps 739 mmHg 85%
    23:00 +9°C° 0.2 mm 5 mps 740 mmHg 88%

    Day after tomorrow, 23 September, Sunday

    Time Temperature Precipitation Wind Pressure Humidity
    00:00 +9°C° 0.9 mm 5 mps 739 mmHg 89%
    01:00 +8°C° 0.9 mm 5 mps 739 mmHg 90%
    02:00 +7°C° 0.9 mm 5 mps 739 mmHg 90%
    03:00 +7°C° 1.7 mm 4 mps 739 mmHg 92%
    04:00 +7°C° 1.7 mm 4 mps 739 mmHg 93%
    05:00 +8°C° 1.7 mm 3 mps 739 mmHg 94%
    06:00 +8°C° 0.9 mm 3 mps 739 mmHg 93%
    07:00 +9°C° 0.9 mm 3 mps 739 mmHg 93%
    08:00 +9°C° 0.9 mm 3 mps 739 mmHg 92%
    09:00 +10°C° 0.3 mm 4 mps 739 mmHg 89%
    10:00 +11°C° 0.3 mm 4 mps 739 mmHg 85%
    11:00 +12°C° 0.3 mm 4 mps 739 mmHg 81%
    12:00 +12°C° 0.4 mm 4 mps 739 mmHg 77%
    13:00 +13°C° 0.4 mm 4 mps 739 mmHg 73%
    14:00 +14°C° 0.4 mm 5 mps 739 mmHg 69%
    15:00 +13°C° 0.2 mm 4 mps 739 mmHg 72%
    16:00 +12°C° 0.2 mm 3 mps 739 mmHg 76%
    17:00 +11°C° 0.2 mm 3 mps 739 mmHg 79%
    18:00 +10°C° 0.1 mm 3 mps 739 mmHg 82%
    19:00 +9°C° 0.1 mm 3 mps 739 mmHg 85%
    20:00 +8°C° 0.1 mm 3 mps 740 mmHg 88%
    21:00 +8°C° 0 mm 3 mps 740 mmHg 89%
    22:00 +8°C° 0 mm 3 mps 740 mmHg 91%
    23:00 +7°C° 0 mm 3 mps 740 mmHg 92%

    24 September, Monday

    Time Temperature Precipitation Wind Pressure Humidity
    00:00 +7°C° 0 mm 3 mps 740 mmHg 92%
    01:00 +7°C° 0 mm 3 mps 740 mmHg 93%
    02:00 +7°C° 0 mm 3 mps 740 mmHg 94%
    03:00 +5°C° 0 mm 3 mps 740 mmHg 95%
    04:00 +5°C° 0 mm 3 mps 740 mmHg 95%
    05:00 +6°C° 0 mm 2 mps 740 mmHg 96%
    06:00 +7°C° 0 mm 3 mps 740 mmHg 93%
    07:00 +7°C° 0 mm 3 mps 740 mmHg 90%
    08:00 +8°C° 0 mm 3 mps 739 mmHg 87%
    09:00 +10°C° 0 mm 3 mps 739 mmHg 80%
    10:00 +11°C° 0 mm 4 mps 739 mmHg 74%
    11:00 +12°C° 0 mm 4 mps 739 mmHg 67%
    12:00 +12°C° 0.1 mm 5 mps 738 mmHg 67%
    13:00 +11°C° 0.1 mm 6 mps 737 mmHg 67%
    14:00 +11°C° 0.1 mm 7 mps 736 mmHg 67%
    15:00 +10°C° 1.5 mm 6 mps 735 mmHg 74%
    16:00 +9°C° 1.5 mm 6 mps 734 mmHg 82%
    17:00 +8°C° 1.5 mm 6 mps 733 mmHg 89%
    18:00 +8°C° 1.7 mm 7 mps 732 mmHg 90%
    19:00 +8°C° 1.7 mm 7 mps 730 mmHg 90%
    20:00 +9°C° 1.7 mm 7 mps 729 mmHg 91%
    21:00 +9°C° 1.6 mm 8 mps 727 mmHg 92%
    22:00 +10°C° 1.6 mm 8 mps 726 mmHg 92%
    23:00 +11°C° 1.6 mm 8 mps 725 mmHg 92%

    25 September, Tuesday

    Time Temperature Precipitation Wind Pressure Humidity
    00:00 +10°C° 0.5 mm 7 mps 724 mmHg 91%
    01:00 +10°C° 0.5 mm 7 mps 723 mmHg 90%
    02:00 +9°C° 0.5 mm 6 mps 723 mmHg 89%
    03:00 +8°C° 0.2 mm 6 mps 722 mmHg 89%
    04:00 +8°C° 0.2 mm 6 mps 722 mmHg 90%
    05:00 +8°C° 0.2 mm 6 mps 722 mmHg 90%
    06:00 +7°C° 0.5 mm 5 mps 722 mmHg 91%
    07:00 +7°C° 0.5 mm 5 mps 722 mmHg 91%
    08:00 +7°C° 0.5 mm 5 mps 722 mmHg 92%
    09:00 +7°C° 0.6 mm 4 mps 722 mmHg 92%
    10:00 +7°C° 0.6 mm 4 mps 722 mmHg 92%
    11:00 +8°C° 0.6 mm 4 mps 723 mmHg 92%
    12:00 +8°C° 1 mm 4 mps 723 mmHg 92%
    13:00 +7°C° 1 mm 5 mps 724 mmHg 91%
    14:00 +7°C° 1 mm 6 mps 725 mmHg 91%
    15:00 +6°C° 0.8 mm 7 mps 726 mmHg 90%
    16:00 +5°C° 0.8 mm 8 mps 726 mmHg 89%
    17:00 +5°C° 0.8 mm 9 mps 727 mmHg 88%
    18:00 +5°C° 0.4 mm 10 mps 728 mmHg 86%
    19:00 +3°C° 0.4 mm 10 mps 729 mmHg 85%
    20:00 +3°C° 0.4 mm 10 mps 730 mmHg 84%
    21:00 +3°C° 0.1 mm 9 mps 731 mmHg 83%
    22:00 +2°C° 0.1 mm 9 mps 731 mmHg 82%
    23:00 +2°C° 0.1 mm 8 mps 732 mmHg 80%

    26 September, Wednesday

    Time Temperature Precipitation Wind Pressure Humidity
    00:00 +2°C° 0.1 mm 8 mps 733 mmHg 80%
    01:00 +2°C° 0.1 mm 8 mps 733 mmHg 79%
    02:00 +1°C° 0.1 mm 8 mps 734 mmHg 79%
    03:00 +2°C° 0 mm 7 mps 734 mmHg 79%
    04:00 +2°C° 0 mm 7 mps 735 mmHg 78%
    05:00 0°C° 0 mm 7 mps 736 mmHg 78%
    06:00 +2°C° 0 mm 7 mps 736 mmHg 76%
    07:00 +2°C° 0 mm 7 mps 737 mmHg 74%
    08:00 +2°C° 0 mm 7 mps 737 mmHg 71%
    09:00 +3°C° 0 mm 7 mps 738 mmHg 69%
    10:00 +4°C° 0 mm 7 mps 739 mmHg 67%
    11:00 +5°C° 0 mm 7 mps 739 mmHg 65%
    12:00 +5°C° 0.1 mm 6 mps 740 mmHg 65%
    13:00 +5°C° 0.1 mm 6 mps 741 mmHg 65%
    14:00 +5°C° 0.1 mm 6 mps 741 mmHg 65%
    15:00 +6°C° 0 mm 5 mps 742 mmHg 66%
    16:00 +6°C° 0 mm 5 mps 742 mmHg 67%
    17:00 +6°C° 0 mm 4 mps 743 mmHg 68%
    18:00 +5°C° 0 mm 4 mps 744 mmHg 70%
    19:00 +4°C° 0 mm 4 mps 744 mmHg 72%
    20:00 +3°C° 0 mm 4 mps 745 mmHg 75%
    21:00 +3°C° 0 mm 3 mps 745 mmHg 77%
    22:00 +3°C° 0 mm 3 mps 746 mmHg 79%
    23:00 +3°C° 0 mm 3 mps 746 mmHg 81%
    Show more